Hauptseite
METAR-TAF:

METAR-TAF

Flughäfen :

Bohrplattform

Ula, Norwegen

Breite: 59-06-39N, Länge: 2-50-45E, Höhe: 0 m

Beobachtung

Neuester Wetterbericht von vor 21 Minuten, um 02:50 UTC
Wind 20 kt aus Ost/Südost
Temperatur 9°C
Luftfeuchtigkeit 81%
Luftdruck 1033 hPa
Sichtweite 10 km oder mehr

METAR: ENLA 170250Z AUTO 12020KT 9999NDV OVC014/// 09/06 Q1033 W///S3

Zeit: 04:11 (03:11 UTC)


TAF: fehlend

Wetterbeobachtungen und Prognosen von mehr als 4000 Flughäfen (METAR und TAF Bericht).

Die verfügbaren Stationen werden durch gelbe und rote Markierungen auf der Karte dargestellt.

Führen Sie die Maus auf sie, um den Namen der Station zu sehen.

Darauf klicken, um die Beobachtung von Wetterbeobachtungen und Prognosen zu sehen.

Um die Karte zu ändern : klicken Sie auf den grünen Tasten mit einem schwarzen Kreuz Zum Vergrößern, auf den grünen Button mit einem Gedankenstrich zu verkleinern, oder auf die grünen Pfeile für benachbarte Karten.


METAR-TAF: